{"data":{"norad_id":60471,"intl_designator":"2024-149D","name":"LEMUR-2-TOMATOKECHUP","alt_names":[],"object_type":"PAYLOAD","status":"ACTIVE","operator":null,"country":"US","launch_date":"2024-08-16","launch_site_code":"AFWTR","launch_vehicle":null,"mission":null,"orbit_class":"UNKNOWN","rcs_meters":null,"size_class":null,"mass_kg":null,"dimensions":null,"purposes":["earth_obs"],"wikipedia_slug":null,"has_3d_model":false,"image_url":null,"decayed_at":null,"tle_current":{"epoch":"2026-05-24T23:26:45.445632Z","epoch_age_seconds":70998,"freshness":"FRESH","line1":"1 60471U 24149D   26144.97691488  .00010097  00000+0  29518-3 0  9991","line2":"2 60471  97.3795 226.9743 0000917  33.5916 326.5386 15.35476557 98601","mean_motion":15.35476557,"eccentricity":9.17e-5,"inclination_deg":97.3795,"raan_deg":226.9743,"arg_perigee_deg":33.5916,"mean_anomaly_deg":326.5386,"bstar":0.00029518,"rev_number":9860,"period_min":93.781959316491,"perigee_km":458.87834378682,"apogee_km":460.13236739484,"semimajor_km":6837.6423555908,"source":"CELESTRAK","updated_at":"2026-05-25T13:38:13.535311Z"}}}